Tracking 30970 objects as of 3-Jul-2025
HD Live streaming from Space Station
objects crossing your sky now

FENGYUN 1C DEB

Track FENGYUN 1C DEB now!
10-day predictions


NORAD ID: 29832
Int'l Code: 1999-025EA
Perigee: 574.4 km
Apogee: 851.0 km
Inclination: 98.8 °
Period: 98.9 minutes
Semi major axis: 7083 km
RCS: 0.1 m2 (medium)
Launch date: May 10, 1999
Source: People's Republic of China (PRC)
Launch site: Taiyaun Space Center, China (TSC)

Note: This is SATELLITE DEBRIS
Your satellite tracking list
OPS 9317 (IDSCS 7)
Track 1 satellite(s)




NASA's NSSDC Master Catalog

Two Line Element Set (TLE):
1 29832U 99025EA  25183.82664952  .00000528  00000-0  10318-3 0  9991
2 29832  98.8106 285.9369 0195260  59.9022 302.1374 14.56177843978842
Source of the keplerian elements: AFSPC